[[{"header":{"parameterUnit":"m.s-1","parameterCategory":1,"la1":30.2991,"la2":30.254,"lo1":-89.0895,"lo2":-89.0444,"dy":0.0017,"dx":0.0017,"nx":28,"ny":28,"refTime":"2024-12-16T09:00:00:Z","depth":0,"parameterNumber":2,"parameterNumberName":"U-component_of_WINDS"},"data":[0,0,0,0,0,0,0,0,0,0,0,0,0,0,0,0,0,0,0,0,0,0,0,0,0,0,0,0,0,0,0,0,0,0,0,0,0,0,0,0,0,0,0,0,0,0,0,0,0,0,0,0,0,0,0,0,0,0,-0.4395,-0.4396,0,-0.4466,-0.4467,-0.4468,-0.4458,-0.4456,-0.4455,-0.4454,-0.453,-0.4533,-0.4536,0,0,0,0,0,0,0,0,0,0,0,0,0,-0.4255,-0.4257,-0.4395,-0.4396,-0.4397,-0.4466,-0.4467,-0.4468,-0.4458,-0.4456,-0.4455,-0.4453,-0.4529,-0.4533,-0.4537,0,0,0,0,0,0,0,0,0,0,0,0,0,-0.432,-0.4258,-0.4395,-0.44,-0.4401,-0.4466,-0.4467,-0.4468,-0.4458,-0.4456,-0.4454,-0.4453,-0.4528,-0.4533,-0.4537,-0.4602,0,0,-0.4552,-0.4554,0,0,0,0,0,0,0,0,-0.4316,-0.4325,-0.4398,-0.44,-0.4401,-0.4451,-0.4445,-0.4513,-0.4458,-0.4437,-0.4454,-0.4452,-0.4506,-0.4512,-0.4529,-0.4606,-0.4609,-0.4552,-0.4555,-0.4557,-0.4558,0,0,0,0,0,0,0,-0.4312,-0.4322,-0.4423,-0.44,-0.4401,-0.44,-0.4407,-0.4458,-0.448,-0.4438,-0.4438,-0.4446,-0.4506,-0.4525,-0.4531,-0.461,-0.4552,-0.4556,-0.4559,-0.4561,-0.4745,-0.4747,0,0,0,0,0,0,-0.4305,-0.4318,-0.4421,-0.4425,-0.4353,-0.4404,-0.4412,-0.4437,-0.448,-0.4484,-0.4448,-0.4445,-0.4518,-0.4526,-0.4534,-0.4614,-0.4557,-0.4561,-0.4564,-0.4743,-0.4745,-0.4747,0,0,0,0,0,0,-0.4302,-0.4314,-0.4418,-0.4372,-0.4385,-0.4408,-0.4436,-0.4439,-0.4458,-0.4487,-0.4491,-0.4462,-0.4517,-0.4527,-0.4585,-0.4616,-0.4563,-0.4568,-0.474,-0.4743,-0.4746,-0.4774,0,0,0,0,0,0,-0.4298,-0.4313,-0.4338,-0.4372,-0.4387,-0.4467,-0.4438,-0.4442,-0.4466,-0.4464,-0.4502,-0.4506,-0.4516,-0.4578,-0.459,-0.4622,-0.4571,-0.4738,-0.4742,-0.4745,-0.477,-0.4777,-0.4783,0,0,0,0,0,-0.4293,-0.4343,-0.4339,-0.4351,-0.4418,-0.4469,-0.4478,-0.4487,-0.4468,-0.4493,-0.4512,-0.4505,-0.461,-0.4584,-0.4597,-0.4631,-0.4736,-0.474,-0.4745,-0.4767,-0.4776,-0.4783,0,0,0,0,0,0,-0.4313,-0.4348,-0.4343,-0.4405,-0.4434,-0.4467,-0.4499,-0.4496,-0.4531,-0.4528,-0.4538,-0.4547,-0.4606,-0.4624,-0.4594,-0.4697,-0.4671,-0.4678,-0.4683,-0.4692,-0.4698,-0.4694,-0.4575,0,0,0,0,0,-0.4324,-0.4361,-0.439,-0.4443,-0.4457,-0.4476,-0.4498,-0.4503,-0.4534,-0.4546,-0.4569,-0.46,-0.464,-0.4667,-0.4705,-0.4772,-0.4781,-0.4802,-0.4808,-0.4814,-0.4821,-0.4859,-0.4869,-0.4763,-0.4763,-0.4762,0,0,-0.4348,-0.4372,-0.4395,-0.4447,-0.447,-0.451,-0.4486,-0.453,-0.456,-0.4553,-0.461,-0.4627,-0.4663,-0.4726,-0.4755,-0.4743,-0.4852,-0.482,-0.4824,-0.4828,-0.4865,-0.4875,-0.4884,-0.4766,-0.4765,-0.4765,0,0,-0.4413,-0.4433,-0.448,-0.4503,-0.4538,-0.455,-0.4561,-0.4594,-0.4606,-0.4662,-0.4658,-0.4695,-0.4763,-0.4789,-0.4812,-0.4886,-0.4882,-0.4898,-0.4934,-0.4971,-0.498,-0.4987,-0.5016,-0.5026,-0.4905,-0.4905,-0.4905,0,-0.4439,-0.4498,-0.4504,-0.4549,-0.4572,-0.4566,-0.4614,-0.4637,-0.4683,-0.47,-0.4685,-0.4772,-0.4795,-0.4865,-0.4883,-0.4901,-0.4915,-0.4895,-0.4978,-0.4985,-0.4993,-0.502,-0.503,-0.4907,-0.4907,-0.4906,-0.4906,0,-0.4529,-0.4571,-0.4604,-0.4647,-0.4675,-0.472,-0.4735,-0.4762,-0.4764,-0.4778,-0.4836,-0.4864,-0.4909,-0.4925,-0.4927,-0.4996,-0.4987,-0.4975,-0.4949,-0.5004,-0.503,-0.5041,-0.491,-0.4909,-0.4908,-0.4908,0,0,-0.4609,-0.4655,-0.4668,-0.4688,-0.4725,-0.4758,-0.4804,-0.4847,-0.487,-0.4902,-0.4942,-0.5,-0.4989,-0.5014,-0.502,-0.5052,-0.5112,-0.5036,-0.5037,-0.5051,-0.5191,-0.5201,-0.5213,-0.5108,-0.511,-0.5112,-0.5188,0,-0.4679,-0.4759,-0.4766,-0.4839,-0.4878,-0.4873,-0.4914,-0.4942,-0.4956,-0.4992,-0.5008,-0.505,-0.5031,-0.5047,-0.5078,-0.5098,-0.514,-0.5092,-0.5148,-0.515,-0.5141,-0.5226,-0.5237,-0.5308,-0.5198,-0.52,-0.5201,0,-0.4771,-0.4805,-0.4881,-0.4914,-0.4931,-0.4967,-0.5007,-0.5041,-0.5074,-0.5082,-0.511,-0.5111,-0.516,-0.5131,-0.5199,-0.5166,-0.519,-0.5202,-0.5205,-0.5213,-0.518,-0.5238,-0.5331,-0.5342,-0.5217,-0.5216,-0.5215,0,-0.4824,-0.4889,-0.4943,-0.496,-0.4999,-0.5025,-0.5043,-0.5073,-0.5099,-0.5134,-0.5151,-0.5191,-0.5214,-0.5247,-0.5259,-0.5236,-0.5328,-0.5299,-0.5338,-0.5338,-0.5359,-0.5358,-0.5459,-0.537,-0.537,-0.537,-0.537,0,-0.4903,-0.495,-0.4967,-0.5001,-0.5055,-0.5063,-0.5116,-0.5132,-0.516,-0.5198,-0.5195,-0.5231,-0.5244,-0.5283,-0.5293,-0.535,-0.5359,-0.5369,-0.5371,-0.537,-0.5369,-0.5387,-0.5383,-0.5373,-0.5372,-0.5372,-0.5371,0,-0.4972,-0.4985,-0.5044,-0.5076,-0.5085,-0.5123,-0.5152,-0.5185,-0.5198,-0.5246,-0.5258,-0.528,-0.5325,-0.534,-0.5395,-0.5402,-0.5468,-0.5465,-0.5457,-0.5458,-0.5496,-0.5493,-0.5614,-0.5632,-0.5529,-0.553,-0.5531,0,-0.5022,-0.5058,-0.5094,-0.5118,-0.5137,-0.5177,-0.5202,-0.5212,-0.5239,-0.5279,-0.5308,-0.5352,-0.5389,-0.5461,-0.5483,-0.5525,-0.5525,-0.5564,-0.5532,-0.553,-0.5528,-0.5527,-0.5531,-0.5571,-0.5572,-0.5573,-0.5574,0,-0.511,-0.5114,-0.5151,-0.519,-0.5221,-0.5252,-0.5283,-0.5304,-0.5318,-0.5349,-0.5394,-0.5422,-0.5478,-0.5523,-0.5566,-0.5586,-0.5584,-0.5584,-0.5595,-0.5596,-0.559,-0.5596,-0.5476,-0.5581,-0.5581,-0.558,-0.558,-0.5579,-0.5172,-0.5205,-0.5235,-0.5276,-0.53,-0.5329,-0.5362,-0.5379,-0.5417,-0.5462,-0.5466,-0.5516,-0.5548,-0.5606,-0.5628,-0.5668,-0.5657,-0.5673,-0.5678,-0.5682,-0.5686,-0.5582,-0.5675,-0.5675,-0.5675,-0.5675,-0.5675,0,-0.5262,-0.5281,-0.5318,-0.5361,-0.5394,-0.5386,-0.542,-0.5448,-0.5492,-0.5521,-0.5557,-0.561,-0.5654,-0.5679,-0.5723,-0.575,-0.575,-0.5762,-0.5761,-0.5766,-0.5692,-0.5679,-0.5761,-0.5761,-0.5761,-0.5761,-0.5761,-0.5761,-0.5312,-0.5367,-0.5376,-0.5443,-0.5462,-0.551,-0.5531,-0.5558,-0.5582,-0.5641,-0.5677,-0.5692,-0.572,-0.5767,-0.5807,-0.5813,-0.5831,-0.5844,-0.5849,-0.578,-0.5771,-0.5763,-0.575,-0.5847,-0.5847,-0.592,-0.5921,-0.5921]},{"header":{"parameterUnit":"m.s-1","parameterCategory":1,"la1":30.2991,"la2":30.254,"lo1":-89.0895,"lo2":-89.0444,"dy":0.0017,"dx":0.0017,"nx":28,"ny":28,"refTime":"2024-12-16T09:00:00:Z","depth":0,"parameterNumber":3,"parameterNumberName":"V-component_of_WINDS"},"data":[0,0,0,0,0,0,0,0,0,0,0,0,0,0,0,0,0,0,0,0,0,0,0,0,0,0,0,0,0,0,0,0,0,0,0,0,0,0,0,0,0,0,0,0,0,0,0,0,0,0,0,0,0,0,0,0,0,0,-2.1541,-2.1542,0,-2.1633,-2.1634,-2.1635,-2.1636,-2.1635,-2.1633,-2.1632,-2.1722,-2.1726,-2.1729,0,0,0,0,0,0,0,0,0,0,0,0,0,-2.1364,-2.1367,-2.1541,-2.1542,-2.1543,-2.1633,-2.1634,-2.1635,-2.1636,-2.1635,-2.1633,-2.1632,-2.1721,-2.1725,-2.1729,0,0,0,0,0,0,0,0,0,0,0,0,0,-2.1447,-2.1368,-2.1541,-2.1555,-2.1557,-2.1632,-2.1634,-2.1635,-2.1636,-2.1634,-2.1633,-2.1631,-2.172,-2.1725,-2.173,-2.1797,0,0,-2.1746,-2.1748,0,0,0,0,0,0,0,0,-2.1442,-2.1453,-2.1551,-2.1554,-2.1556,-2.1621,-2.1604,-2.1689,-2.1637,-2.1606,-2.1632,-2.163,-2.169,-2.1697,-2.1718,-2.1801,-2.1805,-2.1746,-2.175,-2.1752,-2.1753,0,0,0,0,0,0,0,-2.1436,-2.1449,-2.1577,-2.1553,-2.1556,-2.1555,-2.1565,-2.162,-2.1656,-2.1608,-2.1609,-2.162,-2.1691,-2.1713,-2.172,-2.1806,-2.1746,-2.1751,-2.1754,-2.1756,-2.1949,-2.1951,0,0,0,0,0,0,-2.1428,-2.1444,-2.1574,-2.158,-2.1494,-2.156,-2.1571,-2.1602,-2.1656,-2.1662,-2.1621,-2.162,-2.1705,-2.1714,-2.1723,-2.1806,-2.1752,-2.1757,-2.176,-2.1947,-2.1949,-2.1951,0,0,0,0,0,0,-2.1424,-2.144,-2.1571,-2.1512,-2.1529,-2.1565,-2.16,-2.1605,-2.1627,-2.1665,-2.1671,-2.1638,-2.1704,-2.1716,-2.1779,-2.1809,-2.1759,-2.1764,-2.1944,-2.1947,-2.195,-2.197,0,0,0,0,0,0,-2.1419,-2.1438,-2.1465,-2.1513,-2.1532,-2.1626,-2.1602,-2.1608,-2.1637,-2.1635,-2.1683,-2.1689,-2.1704,-2.1771,-2.1784,-2.1815,-2.1768,-2.1942,-2.1946,-2.1949,-2.1967,-2.1974,-2.1979,0,0,0,0,0,-2.1413,-2.1466,-2.1466,-2.1482,-2.1566,-2.1627,-2.1638,-2.1655,-2.1639,-2.1666,-2.169,-2.1687,-2.1803,-2.1778,-2.1792,-2.1825,-2.194,-2.1945,-2.1949,-2.1964,-2.1972,-2.1979,0,0,0,0,0,0,-2.1419,-2.1472,-2.1473,-2.1543,-2.1581,-2.1627,-2.1661,-2.1663,-2.1705,-2.1702,-2.172,-2.1731,-2.1794,-2.1816,-2.1786,-2.1893,-2.187,-2.1877,-2.1876,-2.1884,-2.189,-2.1884,-2.1772,0,0,0,0,0,-2.1428,-2.1475,-2.1519,-2.1576,-2.1595,-2.1625,-2.1652,-2.1663,-2.1702,-2.1717,-2.1746,-2.1783,-2.1828,-2.1857,-2.1901,-2.197,-2.198,-2.2,-2.2006,-2.2011,-2.2017,-2.2056,-2.2065,-2.1966,-2.1966,-2.1966,0,0,-2.1448,-2.1483,-2.1511,-2.1578,-2.1609,-2.1655,-2.1638,-2.1688,-2.1723,-2.1724,-2.1786,-2.1809,-2.1851,-2.1918,-2.1948,-2.1938,-2.2047,-2.2017,-2.202,-2.2024,-2.2062,-2.2071,-2.2079,-2.1969,-2.1968,-2.1968,0,0,-2.1509,-2.154,-2.1592,-2.1623,-2.167,-2.1689,-2.1702,-2.1748,-2.1764,-2.1826,-2.1829,-2.1869,-2.1946,-2.1977,-2.2002,-2.2075,-2.2074,-2.2089,-2.212,-2.2158,-2.2166,-2.2173,-2.2199,-2.2208,-2.2095,-2.2095,-2.2095,0,-2.1527,-2.1599,-2.1618,-2.1669,-2.1698,-2.1703,-2.1756,-2.1784,-2.1842,-2.1862,-2.1849,-2.1947,-2.1976,-2.205,-2.2068,-2.2088,-2.2103,-2.2083,-2.2163,-2.217,-2.2177,-2.2203,-2.2212,-2.2096,-2.2096,-2.2096,-2.2096,0,-2.162,-2.167,-2.1706,-2.1764,-2.1797,-2.1848,-2.1874,-2.1905,-2.1913,-2.1933,-2.1997,-2.2032,-2.2083,-2.2101,-2.2108,-2.2176,-2.2169,-2.2159,-2.2137,-2.2188,-2.2212,-2.2222,-2.2099,-2.2098,-2.2098,-2.2097,0,0,-2.1686,-2.1755,-2.1768,-2.1794,-2.1846,-2.1885,-2.1936,-2.1987,-2.2014,-2.2053,-2.2097,-2.2162,-2.2155,-2.2183,-2.2194,-2.2227,-2.2283,-2.2214,-2.2215,-2.2226,-2.2361,-2.2368,-2.2379,-2.2283,-2.2285,-2.2286,-2.2357,0,-2.1753,-2.1846,-2.1864,-2.1944,-2.1991,-2.1996,-2.2041,-2.2077,-2.2098,-2.2139,-2.2161,-2.2208,-2.2194,-2.2212,-2.2245,-2.2269,-2.231,-2.2264,-2.2322,-2.2324,-2.2312,-2.2391,-2.2398,-2.2464,-2.2367,-2.2369,-2.237,0,-2.1843,-2.1887,-2.1972,-2.2019,-2.2039,-2.2079,-2.2127,-2.2167,-2.2208,-2.2221,-2.2254,-2.2261,-2.2314,-2.2289,-2.2361,-2.233,-2.2354,-2.237,-2.2373,-2.2379,-2.235,-2.24,-2.2485,-2.2495,-2.2385,-2.2383,-2.2382,0,-2.1883,-2.1963,-2.2025,-2.2047,-2.2103,-2.2131,-2.2156,-2.2195,-2.2225,-2.2267,-2.2287,-2.2334,-2.236,-2.2396,-2.2415,-2.2395,-2.2487,-2.2463,-2.2498,-2.2498,-2.2517,-2.2516,-2.2608,-2.2533,-2.2533,-2.2532,-2.2532,0,-2.1956,-2.2008,-2.2044,-2.2082,-2.214,-2.2161,-2.2217,-2.2241,-2.2277,-2.2319,-2.2325,-2.2364,-2.2388,-2.243,-2.2445,-2.2503,-2.2514,-2.2526,-2.2529,-2.2526,-2.2524,-2.2542,-2.2538,-2.2535,-2.2535,-2.2534,-2.2534,0,-2.2011,-2.2037,-2.2105,-2.2153,-2.2166,-2.2207,-2.2248,-2.2284,-2.2305,-2.2358,-2.2372,-2.2404,-2.2454,-2.2478,-2.2539,-2.2549,-2.2615,-2.2615,-2.2602,-2.2603,-2.2638,-2.2634,-2.2745,-2.2761,-2.2675,-2.2675,-2.2676,0,-2.2055,-2.2096,-2.2149,-2.2178,-2.2204,-2.2251,-2.2282,-2.2303,-2.2335,-2.2386,-2.2416,-2.2467,-2.2509,-2.2588,-2.2616,-2.2663,-2.2665,-2.2701,-2.2672,-2.2667,-2.2666,-2.2663,-2.2668,-2.2706,-2.2706,-2.2707,-2.2708,0,-2.2132,-2.2143,-2.2189,-2.2239,-2.2276,-2.2316,-2.2355,-2.2378,-2.2406,-2.2441,-2.2494,-2.2526,-2.259,-2.264,-2.2689,-2.2713,-2.2715,-2.2717,-2.2727,-2.2724,-2.2715,-2.2721,-2.2617,-2.2714,-2.2713,-2.2713,-2.2713,-2.2712,-2.2184,-2.222,-2.2264,-2.2314,-2.2346,-2.2383,-2.242,-2.2446,-2.249,-2.2545,-2.2555,-2.261,-2.265,-2.2717,-2.2743,-2.2786,-2.2777,-2.2792,-2.2796,-2.28,-2.2802,-2.2708,-2.2794,-2.2794,-2.2794,-2.2794,-2.2794,0,-2.2261,-2.229,-2.2336,-2.2391,-2.2431,-2.2431,-2.2474,-2.2507,-2.2556,-2.2594,-2.2636,-2.2696,-2.2744,-2.2777,-2.2826,-2.2855,-2.2857,-2.2867,-2.2865,-2.2871,-2.2807,-2.2793,-2.2864,-2.2864,-2.2864,-2.2864,-2.2864,-2.2864,-2.2306,-2.2368,-2.2385,-2.2462,-2.249,-2.2546,-2.2571,-2.2605,-2.2635,-2.2703,-2.2744,-2.2765,-2.2801,-2.2853,-2.2898,-2.2906,-2.2924,-2.2934,-2.2942,-2.2882,-2.2875,-2.2868,-2.2855,-2.2938,-2.2938,-2.3003,-2.3003,-2.3004]}]]